NWS Melbourne » East Central Florida Hourly Weather Roundup

 

ASUS42 KMLB 241712
RWRMLB
HOURLY WEATHER ROUNDUP AROUND FLORIDA
NATIONAL WEATHER SERVICE OFFICE MELBOURNE FL
100 PM EDT SUN MAY 24 2015
  
CITY           SKY/WX    TMP DP  RH WIND       PRES   REMARKS
MELBOURNE      PTSUNNY   86  73  65 E13G21    30.20F                  
FORT PIERCE    MOSUNNY   85  72  65 E13       30.20F                  
ORLANDO INTL   PTSUNNY   87  73  62 E13       30.20F                  
DAYTONA BEACH  PTSUNNY   84  72  67 E17       30.24F                  
VERO BEACH     MOSUNNY   87  70  56 E13       30.20F                  
$$
...ELSEWHERE ACROSS CENTRAL FLORIDA...
  
CITY           SKY/WX    TMP DP  RH WIND       PRES   REMARKS
PATRICK AFB    SUNNY     85  74  70 E13       30.21F                  
CAPE CANAVERAL MOSUNNY   84  74  71 E10       30.21F                  
TITUSVILLE     PTSUNNY   82  73  74 E17       30.22F                  
ORLANDO EXEC   PTSUNNY   87  71  58 E16       30.20F                  
LEESBURG       SUNNY     89  68  49 E8G20     30.22F                  
THE VILLAGES     N/A     86  72  62 E8        30.12S                  
SANFORD        MOSUNNY   88  70  55 E16       30.21F                  
DELAND           N/A     84  70  61 E12G17    30.24F                  
NEW SMYRNA BCH MOSUNNY   84  73  70 NE12      30.25F                  
ORMOND BEACH   PTSUNNY   82  72  69 E12G17    30.24F                  
WINTER HAVEN   SUNNY     91  69  48 E13       30.20F                  
KISSIMMEE      PTSUNNY   88  73  62 SE14      30.20F                  
OKEECHOBEE     MOSUNNY   90  68  48 E12G17    30.19F                  
TAMPA          PTSUNNY   88  68  51 E8        30.18F                  
$$
...NORTHERN FLORIDA...
  
CITY           SKY/WX    TMP DP  RH WIND       PRES   REMARKS
PALM COAST     PTSUNNY   82  72  69 E13G18    30.25F                  
ST AUGUSTINE   MOSUNNY   81  71  71 NE13      30.28S                  
OCALA          PTSUNNY   86  66  51 E6        30.22F                  
GAINESVILLE    MOSUNNY   85  67  54 E10       30.24F                  
JACKSONVILLE   MOSUNNY   82  65  56 NE15      30.27F                  
TALLAHASSEE    PTSUNNY   86  67  52 SE9       30.23F                  
$$
...ALONG THE SOUTHEAST COAST TO THE KEYS...
  
CITY           SKY/WX    TMP DP  RH WIND       PRES   REMARKS
WEST PALM BCH  MOSUNNY   87  72  60 E12G20    30.19F                  
MIAMI          PTSUNNY   88  73  61 NE16      30.16F                  
KEY WEST       MOSUNNY   86  75  69 E15G22    30.14S                  
$$
...MARINE REPORTS...
  
STATION/POSITION TIME  TEMP    WIND        PRES    WAVE   SWELL
                       AIR SEA DIR/SP/G            HT/PER HT/PER/DIR
                 (UTC) (F)     (DEG/KT/KT) (MB)    (FT/S) (FT/S/D)
ST AUGUSTINE FP  1700   77 77   50/  9/ 10 1025.8S
20NM E CAPE CANA 1650   79 80   90/ 12/ 14 1023.5F   4/ 7   3/ 60/ 7
120 E NEW SMYRNA 1650   78 80   90/ 10/ 12 1024.1F   5/ 7   3/ 50/ 7
TRIDENT PIER     1648   83 82   80/  9/ 12 1023.9F
SEBASTIAN INLET  1700   80     110/ 12     1023.0
4NM E PORT CANAV 1639      80                N/A     3/ 8
6NM NE FPR INLET 1651      82                N/A     4/ 7
SETTLEMENT PT GB 1700   81      80/ 13/ 22 1022.7F
$$
 

 

Link to: East Central Florida Hourly Weather Roundup


USA.gov is the U.S. government's official web portal to all federal, state and local government web resources and services.